Weather History for Antwerp, Belgium

Change the Weather History Date:

Monday, September 16, 2013

  Actual Average Record
Temperature  
Mean Temperature 54 °F -  
Max Temperature 61 °F 62 °F 80 °F (2006)
Min Temperature 48 °F 47 °F 42 °F (1996)
Degree Days  
Heating Degree Days 10    
Growing Degree Days 4 (Base 50)    
Moisture  
Dew Point 45 °F    
Average Humidity 71    
Maximum Humidity 94    
Minimum Humidity 32    
Precipitation  
Precipitation 0.03 in - - ()
Sea Level Pressure  
Sea Level Pressure 29.58 in    
Wind  
Wind Speed 12 mph ()    
Max Wind Speed 18 mph    
Max Gust Speed 31 mph    
Visibility 7.3 miles    
Events Rain    
Averages and records for this station are not official NWS values.
T = Trace of Precipitation, MM = Missing Value Source: Averaged Metar Reports

Daily Weather History Graph

Daily Weather History Graph

Search for Another Location

Airport:

Trip Planner

Search our weather history database for the weather conditions in past years. The results will help you decide how hot, cold, wet, or windy it might be!

Date:

Astronomy

Sep. 16, 2013 Rise Set
Actual Time 7:18 AM CEST 7:54 PM CEST
Civil Twilight 6:45 AM CEST 8:27 PM CEST
Nautical Twilight 6:05 AM CEST 9:06 PM CEST
Astronomical Twilight 5:23 AM CEST 9:48 PM CEST
Moon 6:06 PM CEST (9/16) 3:28 AM CEST (9/16)
Length of Visible Light 13h 41m
Length of Day
12h 35m
Waxing Gibbous, 88% of the Moon is Illuminated
Sep 16
Waxing Gibbous
Sep 19
Full
Sep 27
Last Quarter
Oct 5
New
Oct 12
First Quarter

Hourly Weather History & Observations

Time (CEST) Temp. Dew Point Humidity Pressure Visibility Wind Dir Wind Speed Gust Speed Precip Events Conditions
12:20 AM 55.4 °F 51.8 °F 88% 29.62 in 6.2 mi SW 18.4 mph - N/A   Mostly Cloudy
12:50 AM 55.4 °F 51.8 °F 88% 29.59 in 6.2 mi SW 18.4 mph 31.1 mph N/A Rain Light Rain Showers
1:20 AM 55.4 °F 51.8 °F 88% 29.59 in 6.2 mi SSW 18.4 mph - N/A Rain Light Rain Showers
1:50 AM 55.4 °F 51.8 °F 88% 29.56 in 6.2 mi SW 16.1 mph 28.8 mph N/A   Mostly Cloudy
2:00 AM 55 °F 52 °F 87% 29.59 in 16 mi SW 15.7 mph - -   Clear
2:20 AM 55.4 °F 51.8 °F 88% 29.56 in 6.2 mi SW 16.1 mph - N/A Rain Light Rain Showers
2:50 AM 55.4 °F 51.8 °F 88% 29.56 in 6.2 mi SW 15.0 mph - N/A   Overcast
3:20 AM 57.2 °F 53.6 °F 88% 29.56 in 6.2 mi SW 15.0 mph - N/A   Overcast
3:50 AM 55.4 °F 53.6 °F 94% 29.56 in 4.3 mi WSW 10.4 mph - N/A Rain Light Rain
4:20 AM 55.4 °F 51.8 °F 88% 29.56 in 6.2 mi West 10.4 mph - N/A Rain Light Rain
4:50 AM 55.4 °F 51.8 °F 88% 29.56 in - West 8.1 mph - N/A   Clear
5:00 AM 55 °F 53 °F 88% 29.58 in 13 mi West 6.7 mph - -   Clear
5:20 AM 55.4 °F 51.8 °F 88% 29.56 in 6.2 mi West 6.9 mph - N/A Rain Light Rain Showers
5:50 AM 55.4 °F 51.8 °F 88% 29.56 in 6.2 mi WSW 5.8 mph - N/A   Mostly Cloudy
6:20 AM 55.4 °F 51.8 °F 88% 29.56 in 6.2 mi West 8.1 mph - N/A Rain Light Rain
6:50 AM 53.6 °F 50.0 °F 88% 29.56 in 6.2 mi West 6.9 mph - N/A   Light Drizzle
7:20 AM 53.6 °F 48.2 °F 82% 29.59 in 6.2 mi West 6.9 mph - N/A   Mostly Cloudy
7:50 AM 53.6 °F 48.2 °F 82% 29.59 in 6.2 mi WSW 6.9 mph - N/A   Mostly Cloudy
8:00 AM 53 °F 48 °F 77% 29.59 in 9 mi WSW 6.7 mph - -   Partly Cloudy
8:20 AM 53.6 °F 48.2 °F 82% 29.59 in 6.2 mi WSW 8.1 mph - N/A   Mostly Cloudy
8:50 AM 53.6 °F 48.2 °F 82% 29.59 in 6.2 mi West 10.4 mph - N/A   Partly Cloudy
9:20 AM 53.6 °F 44.6 °F 72% 29.59 in - West 11.5 mph - N/A   Clear
9:50 AM 55.4 °F 44.6 °F 67% 29.59 in 6.2 mi West 12.7 mph - N/A   Partly Cloudy
10:20 AM 55.4 °F 44.6 °F 67% 29.59 in 6.2 mi West 13.8 mph - N/A   Partly Cloudy
10:50 AM 55.4 °F 42.8 °F 63% 29.59 in 6.2 mi West 15.0 mph 26.5 mph N/A   Partly Cloudy
11:00 AM 56 °F 43 °F 52% 29.61 in 9 mi West 13.4 mph - -   Scattered Clouds
11:20 AM 57.2 °F 41.0 °F 55% 29.59 in 6.2 mi West 17.3 mph - N/A   Scattered Clouds
11:50 AM 57.2 °F 41.0 °F 55% 29.59 in 6.2 mi West 15.0 mph - N/A   Scattered Clouds
12:20 PM 59.0 °F 41.0 °F 51% 29.59 in 6.2 mi WSW 15.0 mph - N/A   Scattered Clouds
12:50 PM 57.2 °F 39.2 °F 51% 29.59 in 6.2 mi West 15.0 mph 26.5 mph N/A   Scattered Clouds
1:20 PM 57.2 °F 41.0 °F 55% 29.59 in 6.2 mi West 13.8 mph - N/A   Scattered Clouds
1:50 PM 59.0 °F 41.0 °F 51% 29.59 in 6.2 mi West 13.8 mph - N/A   Scattered Clouds
2:00 PM 58 °F 40 °F 40% 29.60 in 9 mi West 13.4 mph - -   Partly Cloudy
2:20 PM 59.0 °F 37.4 °F 45% 29.59 in 6.2 mi West 15.0 mph - N/A   Scattered Clouds
2:50 PM 59.0 °F 37.4 °F 45% 29.59 in 6.2 mi West 13.8 mph - N/A   Scattered Clouds
3:20 PM 60.8 °F 37.4 °F 42% 29.56 in 6.2 mi WSW 16.1 mph 28.8 mph N/A   Scattered Clouds
3:50 PM 60.8 °F 37.4 °F 42% 29.56 in 6.2 mi WSW 16.1 mph 27.6 mph N/A   Scattered Clouds
4:20 PM 60.8 °F 37.4 °F 42% 29.56 in - West 16.1 mph - N/A   Clear
4:50 PM 59.0 °F 37.4 °F 45% 29.56 in - West 13.8 mph - N/A   Clear
5:00 PM 60 °F 38 °F 32% 29.57 in 19 mi West 13.4 mph - -   Partly Cloudy
5:20 PM 59.0 °F 37.4 °F 45% 29.56 in - West 13.8 mph - N/A   Clear
5:50 PM 59.0 °F 37.4 °F 45% 29.56 in - West 12.7 mph - N/A   Clear
6:20 PM 53.6 °F 41.0 °F 62% 29.56 in 6.2 mi WNW 12.7 mph 24.2 mph N/A   Partly Cloudy
6:50 PM 53.6 °F 42.8 °F 67% 29.56 in 6.2 mi West 11.5 mph - N/A Rain Light Rain Showers
7:20 PM 51.8 °F 41.0 °F 67% 29.59 in 6.2 mi West 13.8 mph - N/A Rain Light Rain Showers
7:50 PM 50.0 °F 42.8 °F 76% 29.59 in 6.2 mi West 9.2 mph - N/A   Partly Cloudy
8:00 PM 50 °F 43 °F 70% 29.60 in 12 mi West 8.9 mph - - Rain Light Rain Showers
8:20 PM 50.0 °F 42.8 °F 76% 29.59 in 6.2 mi WSW 5.8 mph - N/A   Partly Cloudy
8:50 PM 50.0 °F 44.6 °F 82% 29.59 in 6.2 mi WSW 8.1 mph - N/A Rain Light Rain Showers
9:20 PM 50.0 °F 44.6 °F 82% 29.59 in 6.2 mi WSW 6.9 mph - N/A   Partly Cloudy
9:50 PM 48.2 °F 44.6 °F 87% 29.59 in - SSW 4.6 mph - N/A   Clear
10:20 PM 48.2 °F 44.6 °F 87% 29.59 in 6.2 mi SW 9.2 mph - N/A   Partly Cloudy
10:50 PM 48.2 °F 44.6 °F 87% 29.59 in 6.2 mi SSW 6.9 mph - N/A   Partly Cloudy
11:00 PM 48 °F 44 °F 80% 29.61 in 19 mi SSW 6.7 mph - -   Partly Cloudy
11:20 PM 48.2 °F 42.8 °F 82% 29.59 in - SW 9.2 mph - N/A   Clear
11:50 PM 48.2 °F 42.8 °F 82% 29.62 in 6.2 mi SW 9.2 mph - N/A Rain Light Rain